Voltar ao catálogo

STARLINK-37107

AtivoComunicaçõesSSO
NORAD 68294·PAYLOAD·🇺🇸 United States

Lançado Mar 20, 2026 de Vandenberg Space Force Base

Loading…

Próximas Passagens (próximas 24 horas)

TLE

AtualizadoSource: CelesTrak SupGP

Época: Sep 14, 2026, 21:06 UTC

1 68294C 26057A   26257.87965278  .00005891  00000+0  18281-3 0  2575
2 68294  97.2855  23.3815 0000918 103.0142 266.3266 15.33445710    13

Acompanhe STARLINK-37107 em tempo real com AllMySat

Download on the App Store